| time (UTC) | temp F | wind direction | speed MPH | gust MPH | rain 1hr in | rain 24hr in | rain mn in | humidity % | barometer mb |
| 20260831104006 | 64 | 205 | 4.0 | 6.0 | 0.00 | 0.25 | 0.15 | 98 | 1018.6 |
| 20260831102007 | 64 | 183 | 2.0 | 3.0 | 0.00 | 0.23 | 0.13 | 98 | 1018.6 |
| 20260831101002 | 64 | 205 | 0.0 | 0.0 | 0.00 | 0.22 | 0.12 | 98 | 1018.7 |
| 20260831094001 | 64 | 48 | 2.0 | 3.0 | 0.00 | 0.22 | 0.12 | 98 | 1018.5 |
| 20260831092001 | 64 | 228 | 2.0 | 3.0 | 0.00 | 0.21 | 0.11 | 98 | 1018.7 |
| 20260831091002 | 64 | 205 | 1.0 | 2.0 | 0.00 | 0.21 | 0.11 | 98 | 1018.8 |
| 20260831090002 | 64 | 48 | 2.0 | 3.0 | 0.00 | 0.21 | 0.11 | 98 | 1018.6 |
| 20260831085003 | 64 | 160 | 1.0 | 2.0 | 0.00 | 0.21 | 0.11 | 98 | 1018.7 |
| 20260831084004 | 64 | 160 | 2.0 | 3.0 | 0.00 | 0.21 | 0.11 | 98 | 1018.7 |
| 20260831083004 | 64 | 48 | 2.0 | 3.0 | 0.00 | 0.21 | 0.11 | 98 | 1018.8 |
| 20260831082005 | 64 | 273 | 3.0 | 4.0 | 0.00 | 0.21 | 0.11 | 98 | 1018.9 |
| 20260831081006 | 64 | 25 | 3.0 | 3.0 | 0.00 | 0.21 | 0.11 | 98 | 1018.8 |
| 20260831080006 | 64 | 160 | 5.0 | 6.0 | 0.00 | 0.21 | 0.11 | 98 | 1018.9 |
| 20260831075002 | 65 | 160 | 1.0 | 2.0 | 0.00 | 0.20 | 0.10 | 98 | 1019.4 |
| 20260831073003 | 64 | 25 | 0.0 | 1.0 | 0.00 | 0.20 | 0.10 | 98 | 1019.3 |
| 20260831072004 | 64 | 48 | 2.0 | 3.0 | 0.00 | 0.19 | 0.09 | 98 | 1019.4 |
| 20260831071005 | 64 | 93 | 0.0 | 1.0 | 0.00 | 0.18 | 0.08 | 97 | 1019.4 |
| 20260831070006 | 64 | 138 | 3.0 | 3.0 | 0.00 | 0.18 | 0.08 | 97 | 1019.3 |
| 20260831065001 | 65 | 160 | 3.0 | 3.0 | 0.00 | 0.18 | 0.08 | 97 | 1019.4 |
| 20260831063002 | 64 | 93 | 3.0 | 3.0 | 0.00 | 0.18 | 0.08 | 97 | 1019.4 |
| 20260831062003 | 65 | 70 | 1.0 | 2.0 | 0.00 | 0.18 | 0.08 | 97 | 1019.5 |
| 20260831061003 | 64 | 183 | 0.0 | 1.0 | 0.00 | 0.18 | 0.08 | 97 | 1019.6 |
| 20260831055004 | 65 | 205 | 1.0 | 2.0 | 0.00 | 0.17 | 0.07 | 97 | 1019.6 |
| 20260831054005 | 65 | 93 | 0.0 | 1.0 | 0.00 | 0.17 | 0.07 | 97 | 1019.7 |
| 20260831053006 | 65 | 160 | 2.0 | 3.0 | 0.00 | 0.17 | 0.07 | 97 | 1019.6 |
| 20260831052001 | 65 | 205 | 1.0 | 1.0 | 0.00 | 0.17 | 0.07 | 97 | 1019.8 |
| 20260831045006 | 65 | 160 | 3.0 | 4.0 | 0.00 | 0.15 | 0.05 | 96 | 1019.6 |
| 20260831044001 | 65 | 160 | 3.0 | 4.0 | 0.00 | 0.15 | 0.05 | 96 | 1019.6 |
| 20260831043001 | 65 | 228 | 1.0 | 2.0 | 0.00 | 0.14 | 0.04 | 96 | 1019.7 |
| 20260831042002 | 65 | 340 | 0.0 | 1.0 | 0.00 | 0.13 | 0.03 | 96 | 1019.7 |
| 20260831041002 | 65 | 138 | 3.0 | 4.0 | 0.00 | 0.12 | 0.02 | 96 | 1019.5 |
| 20260831040003 | 65 | 183 | 4.0 | 5.0 | 0.00 | 0.10 | 0.00 | 96 | 1019.6 |
| 20260831035003 | 65 | 205 | 4.0 | 6.0 | 0.00 | 0.08 | 0.08 | 96 | 1019.9 |
| 20260831034003 | 65 | 205 | 3.0 | 4.0 | 0.00 | 0.06 | 0.06 | 96 | 1020.0 |
| 20260831033004 | 65 | 205 | 2.0 | 3.0 | 0.00 | 0.06 | 0.06 | 96 | 1019.9 |
| 20260831032005 | 65 | 228 | 2.0 | 2.0 | 0.00 | 0.06 | 0.06 | 96 | 1019.9 |
| 20260831031005 | 65 | 160 | 2.0 | 3.0 | 0.00 | 0.06 | 0.06 | 96 | 1019.8 |
| 20260831030006 | 65 | 183 | 1.0 | 1.0 | 0.00 | 0.05 | 0.05 | 96 | 1019.9 |
| 20260831025001 | 65 | 205 | 1.0 | 1.0 | 0.00 | 0.05 | 0.05 | 96 | 1020.0 |
| 20260831023002 | 66 | 228 | 2.0 | 3.0 | 0.00 | 0.05 | 0.05 | 96 | 1020.0 |
| 20260831021002 | 66 | 48 | 1.0 | 1.0 | 0.00 | 0.05 | 0.05 | 95 | 1020.0 |
| 20260831015003 | 66 | 228 | 0.0 | 0.0 | 0.00 | 0.05 | 0.05 | 95 | 1020.1 |
| 20260831014004 | 66 | 138 | 0.0 | 1.0 | 0.00 | 0.05 | 0.05 | 95 | 1020.1 |
| 20260831013005 | 66 | 250 | 0.0 | 1.0 | 0.00 | 0.04 | 0.04 | 94 | 1020.3 |
| 20260831012008 | 66 | 250 | 0.0 | 0.0 | 0.00 | 0.04 | 0.04 | 94 | 1020.1 |
| 20260831011002 | 66 | 250 | 0.0 | 0.0 | 0.00 | 0.04 | 0.04 | 94 | 1020.0 |
| 20260831010002 | 66 | 205 | 0.0 | 0.0 | 0.00 | 0.04 | 0.04 | 94 | 1019.8 |
| 20260831004003 | 66 | 205 | 1.0 | 1.0 | 0.00 | 0.04 | 0.04 | 93 | 1019.6 |
| 20260831003004 | 66 | 228 | 1.0 | 3.0 | 0.00 | 0.04 | 0.04 | 93 | 1019.4 |
| 20260831002005 | 66 | 228 | 1.0 | 2.0 | 0.00 | 0.04 | 0.04 | 92 | 1019.3 |
| 20260831001006 | 66 | 160 | 2.0 | 2.0 | 0.00 | 0.04 | 0.04 | 92 | 1019.2 |
| 20260831000002 | 66 | 138 | 1.0 | 2.0 | 0.00 | 0.04 | 0.04 | 91 | 1019.0 |
| 20260830234002 | 67 | 160 | 1.0 | 1.0 | 0.00 | 0.04 | 0.04 | 90 | 1018.9 |
| 20260830233004 | 67 | 138 | 2.0 | 3.0 | 0.00 | 0.04 | 0.04 | 90 | 1018.8 |
| 20260830232005 | 67 | 93 | 2.0 | 3.0 | 0.00 | 0.04 | 0.04 | 90 | 1018.8 |
| 20260830230005 | 67 | 25 | 2.0 | 4.0 | 0.00 | 0.04 | 0.04 | 89 | 1018.7 |
| 20260830225005 | 67 | 93 | 3.0 | 4.0 | 0.00 | 0.04 | 0.04 | 89 | 1018.8 |
| 20260830224007 | 68 | 93 | 2.0 | 3.0 | 0.00 | 0.04 | 0.04 | 89 | 1018.8 |
| 20260830223002 | 68 | 48 | 1.0 | 3.0 | 0.00 | 0.04 | 0.04 | 89 | 1018.7 |
| 20260830222003 | 68 | 25 | 2.0 | 3.0 | 0.00 | 0.04 | 0.04 | 89 | 1018.6 |
| 20260830221003 | 68 | 70 | 3.0 | 5.0 | 0.00 | 0.04 | 0.04 | 88 | 1018.4 |
| 20260830220004 | 68 | 93 | 2.0 | 3.0 | 0.00 | 0.03 | 0.03 | 87 | 1018.6 |
| 20260830215005 | 68 | 70 | 2.0 | 3.0 | 0.00 | 0.03 | 0.03 | 86 | 1018.6 |
| 20260830214006 | 69 | 70 | 1.0 | 1.0 | 0.00 | 0.03 | 0.03 | 85 | 1018.8 |
| 20260830213001 | 69 | 138 | 1.0 | 1.0 | 0.00 | 0.02 | 0.02 | 83 | 1018.9 |
| 20260830212002 | 69 | 250 | 1.0 | 3.0 | 0.00 | 0.02 | 0.02 | 83 | 1018.8 |
| 20260830211003 | 69 | 228 | 4.0 | 7.0 | 0.00 | 0.02 | 0.02 | 81 | 1018.9 |
| 20260830210004 | 69 | 228 | 2.0 | 4.0 | 0.00 | 0.02 | 0.02 | 80 | 1019.0 |
| 20260830205005 | 70 | 250 | 5.0 | 9.0 | 0.00 | 0.01 | 0.01 | 76 | 1019.2 |
| 20260830204006 | 70 | 228 | 6.0 | 11.0 | 0.00 | 0.01 | 0.01 | 73 | 1019.3 |
| 20260830203007 | 71 | 250 | 9.0 | 14.0 | 0.00 | 0.01 | 0.01 | 71 | 1019.2 |
| 20260830202002 | 71 | 250 | 5.0 | 9.0 | 0.00 | 0.01 | 0.01 | 74 | 1019.2 |
| 20260830201002 | 71 | 228 | 4.0 | 6.0 | 0.00 | 0.01 | 0.01 | 77 | 1019.2 |
| 20260830195003 | 71 | 3 | 4.0 | 6.0 | 0.00 | 0.01 | 0.01 | 79 | 1019.2 |
| 20260830194004 | 71 | 318 | 4.0 | 7.0 | 0.00 | 0.01 | 0.01 | 79 | 1019.3 |
| 20260830191004 | 71 | 273 | 4.0 | 5.0 | 0.00 | 0.01 | 0.01 | 83 | 1019.6 |
| 20260830190004 | 71 | 250 | 5.0 | 6.0 | 0.00 | 0.01 | 0.01 | 85 | 1019.8 |
| 20260830185005 | 70 | 228 | 6.0 | 7.0 | 0.00 | 0.01 | 0.01 | 84 | 1019.7 |
| 20260830183005 | 71 | 228 | 2.0 | 3.0 | 0.00 | 0.01 | 0.01 | 85 | 1020.1 |
| 20260830182006 | 70 | 250 | 3.0 | 5.0 | 0.00 | 0.01 | 0.01 | 84 | 1020.0 |
| 20260830181002 | 71 | 250 | 1.0 | 2.0 | 0.00 | 0.01 | 0.01 | 84 | 1020.1 |
| 20260830180003 | 70 | 228 | 3.0 | 6.0 | 0.00 | 0.01 | 0.01 | 82 | 1020.2 |
| 20260830175004 | 70 | 228 | 4.0 | 6.0 | 0.00 | 0.01 | 0.01 | 83 | 1020.3 |
| 20260830174005 | 71 | 250 | 5.0 | 7.0 | 0.00 | 0.01 | 0.01 | 86 | 1020.2 |
| 20260830173006 | 70 | 250 | 4.0 | 7.0 | 0.00 | 0.01 | 0.01 | 84 | 1020.3 |
| 20260830172007 | 70 | 250 | 3.0 | 5.0 | 0.00 | 0.01 | 0.01 | 83 | 1020.0 |
| 20260830171002 | 70 | 228 | 1.0 | 3.0 | 0.00 | 0.00 | 0.00 | 81 | 1020.0 |
| 20260830170003 | 71 | 228 | 4.0 | 5.0 | 0.00 | 0.00 | 0.00 | 80 | 1020.0 |
| 20260830165018 | 71 | 250 | 2.0 | 4.0 | 0.00 | 0.00 | 0.00 | 79 | 1020.0 |
| 20260830164005 | 72 | 228 | 4.0 | 6.0 | 0.00 | 0.00 | 0.00 | 78 | 1020.0 |
| 20260830163006 | 72 | 228 | 3.0 | 4.0 | 0.00 | 0.00 | 0.00 | 74 | 1019.9 |
| 20260830162007 | 72 | 250 | 3.0 | 6.0 | 0.00 | 0.00 | 0.00 | 73 | 1020.0 |
| 20260830161002 | 72 | 273 | 4.0 | 6.0 | 0.00 | 0.00 | 0.00 | 73 | 1020.1 |
| 20260830154008 | 70 | 273 | 5.0 | 7.0 | 0.00 | 0.00 | 0.00 | 75 | 1020.5 |
| 20260830153002 | 70 | 295 | 2.0 | 4.0 | 0.00 | 0.00 | 0.00 | 78 | 1020.5 |
| 20260830152003 | 69 | 250 | 5.0 | 8.0 | 0.00 | 0.00 | 0.00 | 75 | 1020.6 |
| 20260830151005 | 70 | 250 | 5.0 | 6.0 | 0.00 | 0.00 | 0.00 | 74 | 1020.4 |
| 20260830150006 | 70 | 250 | 4.0 | 6.0 | 0.00 | 0.00 | 0.00 | 73 | 1020.4 |
| 20260830145007 | 70 | 250 | 4.0 | 6.0 | 0.00 | 0.00 | 0.00 | 73 | 1020.2 |
| 20260830144002 | 70 | 250 | 3.0 | 6.0 | 0.00 | 0.00 | 0.00 | 73 | 1020.1 |
| 20260830143003 | 70 | 250 | 1.0 | 3.0 | 0.00 | 0.00 | 0.00 | 73 | 1020.0 |
| 20260830142005 | 70 | 295 | 2.0 | 3.0 | 0.00 | 0.00 | 0.00 | 74 | 1019.8 |
| 20260830141005 | 71 | 318 | 3.0 | 5.0 | 0.00 | 0.00 | 0.00 | 71 | 1019.8 |
| 20260830140006 | 71 | 3 | 2.0 | 3.0 | 0.00 | 0.00 | 0.00 | 71 | 1019.7 |
| 20260830135007 | 71 | 205 | 2.0 | 3.0 | 0.00 | 0.00 | 0.00 | 70 | 1019.5 |
| 20260830134002 | 72 | 205 | 1.0 | 3.0 | 0.00 | 0.00 | 0.00 | 71 | 1019.6 |
| 20260830133003 | 70 | 138 | 0.0 | 1.0 | 0.00 | 0.00 | 0.00 | 73 | 1019.5 |
| 20260830131004 | 68 | 160 | 1.0 | 2.0 | 0.00 | 0.00 | 0.00 | 74 | 1019.8 |
| 20260830130004 | 68 | 183 | 1.0 | 3.0 | 0.00 | 0.00 | 0.00 | 74 | 1019.7 |
| 20260830125005 | 68 | 93 | 2.0 | 3.0 | 0.00 | 0.00 | 0.00 | 74 | 1019.7 |
| 20260830123005 | 67 | 340 | 0.0 | 1.0 | 0.00 | 0.00 | 0.00 | 77 | 1019.6 |
| 20260830122006 | 67 | 160 | 1.0 | 2.0 | 0.00 | 0.00 | 0.00 | 77 | 1019.6 |
| 20260830120007 | 65 | 70 | 3.0 | 3.0 | 0.00 | 0.00 | 0.00 | 80 | 1019.4 |
| 20260830113002 | 63 | 70 | 2.0 | 3.0 | 0.00 | 0.00 | 0.00 | 82 | 1019.7 |
| 20260830112004 | 63 | 138 | 1.0 | 2.0 | 0.00 | 0.00 | 0.00 | 82 | 1019.8 |
| 20260830111006 | 63 | 138 | 2.0 | 3.0 | 0.00 | 0.00 | 0.00 | 82 | 1019.9 |
| 20260830110002 | 63 | 93 | 2.0 | 3.0 | 0.00 | 0.00 | 0.00 | 82 | 1019.9 |
| 20260830105004 | 63 | 48 | 1.0 | 1.0 | 0.00 | 0.00 | 0.00 | 82 | 1020.0 |